This demonstration page uses our WeatherBlox Daily Observations layout. Learn more.

Left ArrowRight Arrow

Hourly Observations for February 12, 2019

Temp ( °F °C ) Dew Point ( °F °C ) Humidity (%) Winds ( mph kmh ) Pressure ( in mb ) Visibility ( mi km ) Precip ( " mm )
12:15 am 00:15 Cloudy 36 2 36 2 100 100 E 15 24 29.83 1010 3 5 N/A
12:16 am 00:16 Cloudy 36 2 36 2 100 100 E 16 26 29.83 1010 3 5 N/A
12:35 am 00:35 Cloudy 36 2 36 2 100 100 E 15 24 29.82 1010 3 4 N/A
12:36 am 00:36 Cloudy 36 2 36 2 100 100 E 15 24 29.82 1010 3 4 N/A
12:55 am 00:55 Cloudy 36 2 36 2 100 100 E 14 22 29.80 1009 4 6 N/A
1:15 am 01:15 Cloudy 36 2 36 2 100 100 ESE 10 17 29.80 1009 3 5 N/A
1:16 am 01:16 Cloudy 36 2 36 2 100 100 ESE 10 17 29.80 1009 3 5 N/A
1:35 am 01:35 Cloudy 37 3 37 3 100 100 ESE 12 19 29.78 1009 3 5 N/A
1:55 am 01:55 Cloudy 37 3 37 3 100 100 ESE 14 22 29.77 1008 5 8 N/A
2:15 am 02:15 Cloudy 37 3 37 3 100 100 ESE 12 19 29.75 1008 7 11 N/A
2:16 am 02:16 Cloudy 37 3 37 3 100 100 ESE 12 19 29.74 1007 7 11 N/A
2:35 am 02:35 Cloudy 37 3 37 3 100 100 SE 9 15 29.73 1007 10 16 N/A
2:55 am 02:55 Cloudy 37 3 37 3 100 100 ESE 10 17 29.72 1007 10 16 N/A
3:15 am 03:15 Cloudy 37 3 37 3 100 100 ESE 12 19 29.71 1006 7 11 N/A
3:16 am 03:16 Cloudy 37 3 37 3 100 100 ESE 12 19 29.71 1006 7 11 N/A
3:35 am 03:35 Cloudy 37 3 37 3 100 100 SE 10 17 29.69 1006 7 11 N/A
3:55 am 03:55 Cloudy 37 3 37 3 100 100 SE 7 11 29.69 1006 7 11 N/A
4:15 am 04:15 Cloudy 39 4 39 4 100 100 N N/A 29.69 1005 5 8 N/A
4:16 am 04:16 Cloudy 39 4 39 4 100 100 N N/A 29.69 1005 5 8 N/A
4:35 am 04:35 Cloudy 37 3 37 3 100 100 SE 7 11 29.67 1005 7 11 N/A
4:55 am 04:55 Cloudy 37 3 37 3 100 100 SSE 6 9 29.67 1005 5 8 N/A
5:15 am 05:15 Cloudy 37 3 37 3 100 100 SSE 7 11 29.67 1005 5 8 N/A
5:16 am 05:16 Cloudy 37 3 37 3 100 100 SSE 7 11 29.66 1005 5 8 N/A
5:35 am 05:35 Cloudy 37 3 37 3 100 100 SSE 6 9 29.66 1005 5 8 N/A
5:55 am 05:55 Cloudy 39 4 39 4 100 100 SSE 7 11 29.65 1004 5 8 N/A
5:56 am 05:56 Cloudy 39 4 39 4 100 100 SSE 7 11 29.65 1004 5 8 N/A
6:15 am 06:15 Cloudy 39 4 39 4 100 100 SE 9 15 29.64 1004 4 6 N/A
6:16 am 06:16 Cloudy 39 4 39 4 100 100 SE 10 17 29.63 1003 4 6 N/A
6:35 am 06:35 Cloudy 39 4 39 4 100 100 SSE 10 17 29.62 1003 3 5 N/A
6:55 am 06:55 Cloudy 39 4 39 4 100 100 SSE 9 15 29.61 1003 4 6 N/A
6:56 am 06:56 Cloudy 39 4 39 4 100 100 SSE 9 15 29.61 1003 4 6 N/A
7:15 am 07:15 Cloudy 39 4 39 4 100 100 S 8 13 29.62 1003 1 2 N/A
7:16 am 07:16 Cloudy 39 4 39 4 100 100 S 7 11 29.62 1003 1 2 N/A
7:35 am 07:35 Cloudy 39 4 39 4 100 100 SSW 6 9 29.62 1003 1 1 N/A
7:55 am 07:55 Cloudy 41 5 41 5 100 100 SSW 6 9 29.62 1003 1 1 N/A
7:56 am 07:56 Cloudy 41 5 41 5 100 100 SSW 6 9 29.62 1003 1 1 N/A
8:15 am 08:15 Cloudy 41 5 41 5 100 100 SSW 6 9 29.63 1003 0 0 N/A
8:16 am 08:16 Cloudy 41 5 41 5 100 100 SSW 6 9 29.63 1003 0 0 N/A
8:35 am 08:35 Cloudy 41 5 41 5 100 100 SSW 6 9 29.64 1004 0 0 N/A
8:55 am 08:55 Cloudy 41 5 41 5 100 100 SSW 5 7 29.63 1003 0 0 N/A
8:56 am 08:56 Cloudy 41 5 41 5 100 100 SSW 5 7 29.63 1003 0 0 N/A
9:15 am 09:15 Cloudy 41 5 41 5 100 100 SSE 5 7 29.62 1003 0 0 N/A
9:16 am 09:16 Cloudy 41 5 41 5 100 100 SSE 5 7 29.62 1003 0 0 N/A
9:35 am 09:35 Cloudy 41 5 41 5 100 100 SSW 3 6 29.62 1003 0 0 N/A
9:55 am 09:55 Cloudy 45 7 45 7 100 100 WSW 10 17 29.61 1003 2 2 N/A
9:56 am 09:56 Cloudy 45 7 45 7 100 100 WSW 12 19 29.61 1003 3 4 N/A
10:15 am 10:15 Cloudy 45 7 45 7 100 100 WSW 12 19 29.61 1003 5 8 N/A
10:16 am 10:16 Cloudy 45 7 45 7 100 100 WSW 12 19 29.61 1003 5 8 N/A
10:35 am 10:35 Cloudy 45 7 45 7 100 100 WSW 10 17 29.61 1003 4 6 N/A
10:55 am 10:55 Cloudy 45 7 45 7 100 100 SW 10 17 29.61 1003 5 8 N/A
10:56 am 10:56 Cloudy 45 7 45 7 100 100 SW 9 15 29.61 1003 5 8 N/A
11:15 am 11:15 Cloudy 45 7 45 7 100 100 SW 9 15 29.61 1003 7 11 N/A
11:35 am 11:35 Cloudy 45 7 45 7 100 100 WSW 9 15 29.62 1003 5 8 N/A
11:36 am 11:36 Cloudy 45 7 45 7 100 100 WSW 9 15 29.62 1003 5 8 N/A
11:55 am 11:55 Cloudy 43 6 43 6 100 100 WSW 20 31 29.62 1003 7 11 N/A
11:56 am 11:56 Cloudy 43 6 43 6 100 100 WSW 20 31 29.62 1003 7 11 N/A
12:15 pm 12:15 Cloudy 43 6 43 6 100 100 WSW 18 30 29.62 1003 2 3 N/A
12:35 pm 12:35 Cloudy 43 6 43 6 100 100 W 17 28 29.62 1003 2 3 N/A
12:36 pm 12:36 Cloudy 43 6 43 6 100 100 W 16 26 29.62 1003 2 3 N/A
12:55 pm 12:55 Cloudy 39 4 39 4 100 100 W 16 26 29.63 1003 2 2 N/A
12:56 pm 12:56 Cloudy 39 4 39 4 100 100 W 15 24 29.63 1003 2 2 N/A
1:15 pm 13:15 Cloudy 39 4 39 4 100 100 W 20 31 29.65 1004 3 4 N/A
1:35 pm 13:35 Cloudy 37 3 37 3 100 100 W 25 41 29.65 1004 3 5 N/A
1:36 pm 13:36 Cloudy 37 3 37 3 100 100 W 25 41 29.65 1004 3 5 N/A
1:55 pm 13:55 Cloudy 36 2 36 2 100 100 W 18 30 29.66 1004 5 8 N/A
1:56 pm 13:56 Cloudy 36 2 36 2 100 100 W 18 30 29.66 1004 7 11 N/A
2:15 pm 14:15 Cloudy 34 1 34 1 100 100 W 22 35 29.66 1004 7 11 N/A
2:35 pm 14:35 Cloudy 34 1 34 1 100 100 W 21 33 29.66 1004 10 16 N/A
2:36 pm 14:36 Cloudy 34 1 34 1 100 100 W 20 31 29.67 1005 10 16 N/A
2:55 pm 14:55 Cloudy 34 1 34 1 100 100 W 24 39 29.67 1005 10 16 N/A
3:15 pm 15:15 Cloudy 36 2 36 2 100 100 W 22 35 29.67 1005 10 16 N/A
3:35 pm 15:35 Cloudy 34 1 34 1 100 100 W 25 41 29.68 1005 10 16 N/A
3:36 pm 15:36 Cloudy 34 1 34 1 100 100 W 26 43 29.68 1005 10 16 N/A
3:55 pm 15:55 Cloudy 34 1 34 1 100 100 W 26 43 29.70 1006 10 16 N/A
4:15 pm 16:15 Cloudy 34 1 34 1 100 100 W 22 35 29.71 1006 10 16 N/A
4:16 pm 16:16 Cloudy 34 1 34 1 100 100 W 23 37 29.71 1006 10 16 N/A
4:35 pm 16:35 Cloudy 32 undefined 32 undefined 100 100 W 22 35 29.73 1007 7 11 N/A
4:55 pm 16:55 Cloudy 32 undefined 32 undefined 100 100 W 25 41 29.74 1007 10 16 N/A
5:15 pm 17:15 Cloudy 32 undefined 32 undefined 100 100 W 26 43 29.76 1008 10 16 N/A
5:16 pm 17:16 Cloudy 32 undefined 32 undefined 100 100 W 25 41 29.76 1008 10 16 N/A
5:35 pm 17:35 Cloudy 32 undefined 30 -1 93 93 W 25 41 29.76 1008 10 16 N/A
5:36 pm 17:36 Cloudy 32 undefined 30 -1 93 93 W 23 37 29.76 1008 10 16 N/A
5:55 pm 17:55 Cloudy 32 undefined 30 -1 93 93 W 26 43 29.77 1008 10 16 N/A
6:15 pm 18:15 Cloudy 32 undefined 30 -1 93 93 W 26 43 29.80 1009 7 11 N/A
6:16 pm 18:16 Cloudy 32 undefined 30 -1 93 93 W 26 43 29.80 1009 7 11 N/A
6:35 pm 18:35 Cloudy 30 -1 28 -2 93 93 W 31 50 29.82 1010 10 16 N/A
6:36 pm 18:36 Cloudy 30 -1 28 -2 93 93 W 32 52 29.82 1010 10 16 N/A
6:55 pm 18:55 Cloudy 30 -1 28 -2 93 93 W 32 52 29.83 1010 10 16 N/A
7:15 pm 19:15 Cloudy 30 -1 28 -2 93 93 W 26 43 29.84 1010 10 16 N/A
7:16 pm 19:16 Cloudy 30 -1 28 -2 93 93 W 30 48 29.84 1010 10 16 N/A
7:35 pm 19:35 Cloudy 30 -1 28 -2 93 93 W 23 37 29.84 1010 7 11 N/A
7:55 pm 19:55 Cloudy 30 -1 27 -3 86 86 W 24 39 29.84 1010 10 16 N/A
8:15 pm 20:15 Cloudy 30 -1 28 -2 93 93 W 21 33 29.84 1010 7 11 N/A
8:16 pm 20:16 Cloudy 30 -1 28 -2 93 93 W 22 35 29.84 1010 7 11 N/A
8:35 pm 20:35 Cloudy 28 -2 28 -2 100 100 W 21 33 29.85 1011 3 5 N/A
8:55 pm 20:55 Cloudy 30 -1 28 -2 93 93 WSW 24 39 29.85 1011 7 11 N/A
9:15 pm 21:15 Cloudy 28 -2 27 -3 93 93 W 30 48 29.86 1011 7 11 N/A
9:16 pm 21:16 Cloudy 28 -2 27 -3 93 93 W 31 50 29.86 1011 7 11 N/A
9:35 pm 21:35 Cloudy 28 -2 27 -3 93 93 W 28 44 29.86 1011 10 16 N/A
9:55 pm 21:55 Cloudy 28 -2 27 -3 93 93 WSW 25 41 29.87 1012 4 6 N/A

Powered by AerisWeather